Location: Newark
(51.7378°N, 19.8125°E)
Time: 14:46:43
(UTC+00:00)

Envisat - Pass Details

Date: 17 December 2019
Orbit: 764 x 766 km, 98.1° (Epoch: 18 January)

Event Time Altitude Azimuth Distance (km) Brightness Sun altitude
Rises 05:17:06 0° 17° (NNE) 3,246 6.2 -12.2°
Reaches altitude 10° 05:19:28 10° 22° (NNE) 2,315 5.5 -11.9°
Maximum altitude 05:24:29 56° 100° (E) 914 3.8 -11.1°
Drops below altitude 10° 05:29:27 10° 179° (S) 2,297 5.8 -10.4°
Sets 05:31:48 0° 183° (S) 3,219 6.5 -10.1°
